SL-14 DEB, 45297

Orbit data source: Space-Track

SL-14 DEB, 45297 is space debris in LEO originally from a launch on Thu, 15 Aug 1991 UTC launched from the Plesetsk Missile And Space Complex (PKMTR). Debris objects in space refer to the collection of defunct objects orbiting the Earth. Examples of debris include non-operational satellites, rocket bodies, and fragments generated from explosions, collisions, or faulty payload assembly.

Loading next visibility...
Identifier
45297, 1991-056AK
Orbit
LEO
Country
Flag of CISCIS
Related business
Manufacturer
Unknown
Mission
Spacecraft
Bus & Motor
Unknown
Mass
Unknown
Launch date (UTC)
1991-08-15 (35 years ago)
Launch vehicle
Unknown
Launch site
Plesetsk Missile And Space Complex (PKMTR)
Object type
Payload
Rocket body
Debris
Shape & HBR
Unknown shape, 0.1 m
Radar Cross Section
Medium (>0.1 m² and <1 m²)

Expand to show TLE details & history
Last TLE update: 12 hours ago

TLE from 12 hours ago
0 SL-14 DEB
1 45297U 91056AK  26168.40628923  .00003310  00000-0  78285-2 0  9994
2 45297  82.6136 173.4996 0102169  43.9642 316.9553 13.21283043302768
Epoch: 2026-06-17T09:45Z
TLE epoch observation values (Epoch: 2026-06-17T09:45:03.389Z)
Latitude
-0.00003°
Longitude
121.57105°
Altitude
1,126.566 km
Speed
7.316 km/s
True Right ascension
11h 33m 59s
True Declination
0° 00' 00"
Sunlit
Object was in daylight at epoch
Visualization orbit readout
Latitude
Unknown
Longitude
Unknown
Altitude
Unknown
Speed
Unknown
Apparent Right ascension
Unknown
Apparent Declination
Unknown
Sunlit
N/A
Visualization observer readout
Local Sidereal Time
08:04:06
Azimuth
Unknown
Elevation
Unknown
Doppler factor
Unknown
Orbital elements
Apogee altitude
1,254.25 km
Perigee altitude
1,099.868 km
Semi-major axis
7,555.196 km
Eccentricity
0.01022
Inclination
82.6136°
RAAN
173.4996°
Arg. of periapsis
43.9642°
True anomaly
316.14867°
Mean anomaly
316.9553°
Eccentric anomaly
316.55274°
Mean motion
3.30502 °/min
Orbital period
108.93 mins
BSTAR
0.0078285
Loading maneuver chart data...
Computing Atmospheric mass density...
Loading historical data...
Loading historical data...
Loading historical data...
Loading historical data...
Loading historical data...
Loading historical data...
Loading historical data...

Documentation

Showing up to 5 results
|